Time,TemperatureF,DewpointF,PressureIn,WindDirection,WindDirectionDegrees,WindSpeedMPH,WindSpeedGustMPH,Humidity,HourlyPrecipIn,Conditions,Clouds,dailyrainin,SolarRadiationWatts/m^2,SoftwareType,DateUTC
2013-02-28 00:00:00,13.0,-99.9,44.89,NW,315,1.0,5.0,-999,-99.99,,,0.00,0.000000,,2013-02-28 07:00:00,
2013-02-28 00:52:00,13.0,-99.9,44.89,NW,315,1.0,5.0,-999,-99.99,,,0.00,0.000000,,2013-02-28 07:52:00,
2013-02-28 02:00:00,7.0,-99.9,-100.00,SSW,194,1.0,3.0,-999,-99.99,,,0.00,0.000000,,2013-02-28 09:00:00,
2013-02-28 02:53:00,7.0,-99.9,-100.00,SSW,194,1.0,3.0,-999,-99.99,,,0.00,0.000000,,2013-02-28 09:53:00,
2013-02-28 03:00:00,6.0,-99.9,44.89,SW,234,1.0,3.0,-999,-99.99,,,0.00,0.000000,,2013-02-28 10:00:00,
2013-02-28 03:52:00,6.0,-99.9,44.89,SW,234,1.0,3.0,-999,-99.99,,,0.00,0.000000,,2013-02-28 10:52:00,
2013-02-28 04:00:00,7.0,-99.9,-100.00,West,263,1.0,4.0,-999,-99.99,,,0.01,0.000000,,2013-02-28 11:00:00,
2013-02-28 04:53:00,7.0,-99.9,-100.00,West,263,1.0,4.0,-999,-99.99,,,0.01,0.000000,,2013-02-28 11:53:00,
2013-02-28 05:00:00,11.0,-99.9,-100.00,WNW,289,1.0,7.0,-999,-99.99,,,0.01,0.000000,,2013-02-28 12:00:00,
2013-02-28 05:53:00,11.0,-99.9,-100.00,WNW,289,1.0,7.0,-999,-99.99,,,0.01,0.000000,,2013-02-28 12:53:00,
2013-02-28 06:00:00,15.0,-99.9,44.89,North,358,1.0,8.0,-999,-99.99,,,0.01,0.000000,,2013-02-28 13:00:00,
2013-02-28 06:52:00,15.0,-99.9,44.89,North,358,1.0,8.0,-999,-99.99,,,0.01,0.000000,,2013-02-28 13:52:00,
2013-02-28 07:00:00,13.0,-99.9,44.89,East,98,1.0,6.0,-999,-99.99,,,0.01,0.000000,,2013-02-28 14:00:00,
2013-02-28 07:52:00,13.0,-99.9,44.89,East,98,1.0,6.0,-999,-99.99,,,0.01,0.000000,,2013-02-28 14:52:00,
2013-02-28 08:00:00,11.0,-99.9,-100.00,South,181,1.0,5.0,-999,-99.99,,,0.01,0.600000,,2013-02-28 15:00:00,
2013-02-28 08:53:00,11.0,-99.9,-100.00,South,181,1.0,5.0,-999,-99.99,,,0.01,0.600000,,2013-02-28 15:53:00,
2013-02-28 09:00:00,24.0,-99.9,-100.00,SW,222,1.0,4.0,-999,-99.99,,,0.01,2.400000,,2013-02-28 16:00:00,
2013-02-28 09:53:00,24.0,-99.9,-100.00,SW,222,1.0,4.0,-999,-99.99,,,0.01,2.400000,,2013-02-28 16:53:00,
2013-02-28 10:00:00,35.0,-99.9,44.89,WNW,303,0.0,3.0,-999,-99.99,,,0.00,22.299999,,2013-02-28 17:00:00,
2013-02-28 10:53:00,35.0,-99.9,44.89,WNW,303,0.0,3.0,-999,-99.99,,,0.00,22.299999,,2013-02-28 17:53:00,
2013-02-28 12:00:00,36.0,-99.9,-100.00,SW,215,1.0,6.0,-999,-99.99,,,0.00,50.700001,,2013-02-28 19:00:00,
2013-02-28 12:52:00,36.0,-99.9,-100.00,SW,215,1.0,6.0,-999,-99.99,,,0.00,50.700001,,2013-02-28 19:52:00,
2013-02-28 13:00:00,37.0,-99.9,-100.00,SSE,162,1.0,6.0,-999,-99.99,,,0.00,54.599998,,2013-02-28 20:00:00,
2013-02-28 13:52:00,37.0,-99.9,-100.00,SSE,162,1.0,6.0,-999,-99.99,,,0.00,54.599998,,2013-02-28 20:52:00,
2013-02-28 14:00:00,39.0,-99.9,-100.00,SW,214,2.0,8.0,-999,-99.99,,,0.00,29.600000,,2013-02-28 21:00:00,
2013-02-28 14:52:00,39.0,-99.9,-100.00,SW,214,2.0,8.0,-999,-99.99,,,0.00,29.600000,,2013-02-28 21:52:00,
2013-02-28 16:00:00,36.0,-99.9,44.89,West,264,2.0,7.0,-999,-99.99,,,0.00,37.900002,,2013-02-28 23:00:00,
2013-02-28 16:53:00,36.0,-99.9,44.89,West,264,2.0,7.0,-999,-99.99,,,0.00,37.900002,,2013-02-28 23:53:00,
2013-02-28 17:00:00,31.0,-99.9,-100.00,SW,218,3.0,12.0,-999,-99.99,,,0.00,9.500000,,2013-03-01 00:00:00,
2013-02-28 17:52:00,31.0,-99.9,-100.00,SW,218,3.0,12.0,-999,-99.99,,,0.00,9.500000,,2013-03-01 00:52:00,
2013-02-28 18:00:00,29.0,-99.9,44.89,SSW,209,1.0,7.0,-999,-99.99,,,0.01,0.900000,,2013-03-01 01:00:00,
2013-02-28 18:52:00,29.0,-99.9,44.89,SSW,209,1.0,7.0,-999,-99.99,,,0.01,0.900000,,2013-03-01 01:52:00,
2013-02-28 19:00:00,24.0,-99.9,-100.00,SE,140,0.0,5.0,-999,-99.99,,,0.01,0.000000,,2013-03-01 02:00:00,
2013-02-28 19:52:00,24.0,-99.9,-100.00,SE,140,0.0,5.0,-999,-99.99,,,0.01,0.000000,,2013-03-01 02:52:00,
2013-02-28 20:00:00,22.0,-99.9,44.89,South,174,1.0,4.0,-999,-99.99,,,0.00,0.000000,,2013-03-01 03:00:00,
2013-02-28 20:52:00,22.0,-99.9,44.89,South,174,1.0,4.0,-999,-99.99,,,0.00,0.000000,,2013-03-01 03:52:00,
2013-02-28 21:00:00,27.0,-99.9,-100.00,WSW,250,1.0,5.0,-999,-99.99,,,0.00,0.000000,,2013-03-01 04:00:00,
2013-02-28 21:52:00,27.0,-99.9,-100.00,WSW,250,1.0,5.0,-999,-99.99,,,0.00,0.000000,,2013-03-01 04:52:00,
2013-02-28 22:00:00,31.0,-99.9,-100.00,SW,231,2.0,13.0,-999,-99.99,,,0.00,0.000000,,2013-03-01 05:00:00,
2013-02-28 22:53:00,31.0,-99.9,-100.00,SW,231,2.0,13.0,-999,-99.99,,,0.00,0.000000,,2013-03-01 05:53:00,
2013-02-28 23:00:00,31.0,-99.9,-100.00,WNW,302,3.0,10.0,-999,-99.99,,,0.01,0.000000,,2013-03-01 06:00:00,
2013-02-28 23:53:00,31.0,-99.9,-100.00,WNW,302,3.0,10.0,-999,-99.99,,,0.01,0.000000,,2013-03-01 06:53:00,